Time,TemperatureF,DewpointF,PressureIn,WindDirection,WindDirectionDegrees,WindSpeedMPH,WindSpeedGustMPH,Humidity,HourlyPrecipIn,Conditions,Clouds,dailyrainin,SoftwareType,DateUTC
2013-04-12 00:02:00,26.0,20.0,-100.00,North,-999,-999.0,-999.0,80,-99.99,,,-99.99,,2013-04-12 06:02:00,
2013-04-12 00:12:00,25.0,20.0,-100.00,North,-999,-999.0,-999.0,80,-99.99,,,-99.99,,2013-04-12 06:12:00,
2013-04-12 00:22:00,25.0,20.0,-100.00,North,-999,-999.0,-999.0,80,-99.99,,,-99.99,,2013-04-12 06:22:00,
2013-04-12 00:32:00,25.0,20.0,-100.00,North,-999,-999.0,-999.0,80,-99.99,,,-99.99,,2013-04-12 06:32:00,
2013-04-12 00:42:00,26.0,21.0,-100.00,North,-999,-999.0,-999.0,80,-99.99,,,-99.99,,2013-04-12 06:42:00,
2013-04-12 00:52:00,26.0,21.0,-100.00,North,-999,-999.0,-999.0,80,-99.99,,,-99.99,,2013-04-12 06:52:00,
2013-04-12 01:01:00,26.0,21.0,-100.00,North,-999,-999.0,-999.0,80,-99.99,,,-99.99,,2013-04-12 07:01:00,
2013-04-12 01:11:00,26.0,21.0,-100.00,North,-999,-999.0,-999.0,79,-99.99,,,-99.99,,2013-04-12 07:11:00,
2013-04-12 01:22:00,26.0,21.0,-100.00,North,-999,-999.0,-999.0,79,-99.99,,,-99.99,,2013-04-12 07:22:00,
2013-04-12 01:32:00,26.0,21.0,-100.00,North,-999,-999.0,-999.0,79,-99.99,,,-99.99,,2013-04-12 07:32:00,
2013-04-12 01:42:00,27.0,21.0,-100.00,North,-999,-999.0,-999.0,80,-99.99,,,-99.99,,2013-04-12 07:42:00,
2013-04-12 01:52:00,27.0,21.0,-100.00,North,-999,-999.0,-999.0,80,-99.99,,,-99.99,,2013-04-12 07:52:00,
2013-04-12 02:03:00,27.0,21.0,-100.00,North,-999,-999.0,-999.0,80,-99.99,,,-99.99,,2013-04-12 08:03:00,
2013-04-12 02:12:00,27.0,21.0,-100.00,North,-999,-999.0,-999.0,80,-99.99,,,-99.99,,2013-04-12 08:12:00,
2013-04-12 02:22:00,27.0,21.0,-100.00,North,-999,-999.0,-999.0,80,-99.99,,,-99.99,,2013-04-12 08:22:00,
2013-04-12 02:32:00,27.0,21.0,-100.00,North,-999,-999.0,-999.0,80,-99.99,,,-99.99,,2013-04-12 08:32:00,
2013-04-12 02:42:00,26.0,21.0,-100.00,North,-999,-999.0,-999.0,81,-99.99,,,-99.99,,2013-04-12 08:42:00,
2013-04-12 02:52:00,26.0,21.0,-100.00,North,-999,-999.0,-999.0,81,-99.99,,,-99.99,,2013-04-12 08:52:00,
2013-04-12 03:02:00,26.0,21.0,-100.00,North,-999,-999.0,-999.0,82,-99.99,,,-99.99,,2013-04-12 09:02:00,
2013-04-12 03:12:00,26.0,21.0,-100.00,North,-999,-999.0,-999.0,81,-99.99,,,-99.99,,2013-04-12 09:12:00,
2013-04-12 03:22:00,26.0,21.0,-100.00,North,-999,-999.0,-999.0,81,-99.99,,,-99.99,,2013-04-12 09:22:00,
2013-04-12 03:32:00,26.0,21.0,-100.00,North,-999,-999.0,-999.0,81,-99.99,,,-99.99,,2013-04-12 09:32:00,
2013-04-12 03:43:00,25.0,20.0,-100.00,North,-999,-999.0,-999.0,79,-99.99,,,-99.99,,2013-04-12 09:43:00,
2013-04-12 03:53:00,25.0,20.0,-100.00,North,-999,-999.0,-999.0,79,-99.99,,,-99.99,,2013-04-12 09:53:00,
2013-04-12 04:02:00,25.0,20.0,-100.00,North,-999,-999.0,-999.0,79,-99.99,,,-99.99,,2013-04-12 10:02:00,
2013-04-12 04:12:00,25.0,19.0,-100.00,North,-999,-999.0,-999.0,78,-99.99,,,-99.99,,2013-04-12 10:12:00,
2013-04-12 04:22:00,25.0,19.0,-100.00,North,-999,-999.0,-999.0,78,-99.99,,,-99.99,,2013-04-12 10:22:00,
2013-04-12 04:33:00,25.0,19.0,-100.00,North,-999,-999.0,-999.0,78,-99.99,,,-99.99,,2013-04-12 10:33:00,
2013-04-12 04:42:00,24.0,19.0,-100.00,North,-999,-999.0,-999.0,79,-99.99,,,-99.99,,2013-04-12 10:42:00,
2013-04-12 04:53:00,24.0,19.0,-100.00,North,-999,-999.0,-999.0,79,-99.99,,,-99.99,,2013-04-12 10:53:00,
2013-04-12 05:02:00,24.0,18.0,-100.00,North,-999,-999.0,-999.0,79,-99.99,,,-99.99,,2013-04-12 11:02:00,
2013-04-12 05:12:00,24.0,18.0,-100.00,North,-999,-999.0,-999.0,76,-99.99,,,-99.99,,2013-04-12 11:12:00,
2013-04-12 05:22:00,24.0,18.0,-100.00,North,-999,-999.0,-999.0,76,-99.99,,,-99.99,,2013-04-12 11:22:00,
2013-04-12 05:32:00,24.0,18.0,-100.00,North,-999,-999.0,-999.0,76,-99.99,,,-99.99,,2013-04-12 11:32:00,
2013-04-12 05:42:00,23.0,16.0,-100.00,North,-999,-999.0,-999.0,72,-99.99,,,-99.99,,2013-04-12 11:42:00,
2013-04-12 05:52:00,23.0,16.0,-100.00,North,-999,-999.0,-999.0,72,-99.99,,,-99.99,,2013-04-12 11:52:00,
2013-04-12 06:02:00,23.0,15.0,-100.00,North,-999,-999.0,-999.0,70,-99.99,,,-99.99,,2013-04-12 12:02:00,
2013-04-12 06:12:00,24.0,15.0,-100.00,North,-999,-999.0,-999.0,69,-99.99,,,-99.99,,2013-04-12 12:12:00,
2013-04-12 06:22:00,24.0,15.0,-100.00,North,-999,-999.0,-999.0,69,-99.99,,,-99.99,,2013-04-12 12:22:00,
2013-04-12 06:32:00,24.0,15.0,-100.00,North,-999,-999.0,-999.0,69,-99.99,,,-99.99,,2013-04-12 12:32:00,
2013-04-12 06:42:00,24.0,16.0,-100.00,North,-999,-999.0,-999.0,71,-99.99,,,-99.99,,2013-04-12 12:42:00,
2013-04-12 06:53:00,24.0,16.0,-100.00,North,-999,-999.0,-999.0,71,-99.99,,,-99.99,,2013-04-12 12:53:00,
2013-04-12 07:03:00,23.0,16.0,-100.00,North,-999,-999.0,-999.0,75,-99.99,,,-99.99,,2013-04-12 13:03:00,
2013-04-12 07:12:00,23.0,16.0,-100.00,North,-999,-999.0,-999.0,75,-99.99,,,-99.99,,2013-04-12 13:12:00,
2013-04-12 07:22:00,23.0,16.0,-100.00,North,-999,-999.0,-999.0,75,-99.99,,,-99.99,,2013-04-12 13:22:00,
2013-04-12 07:32:00,23.0,16.0,-100.00,North,-999,-999.0,-999.0,75,-99.99,,,-99.99,,2013-04-12 13:32:00,
2013-04-12 07:42:00,23.0,13.0,-100.00,North,-999,-999.0,-999.0,67,-99.99,,,-99.99,,2013-04-12 13:42:00,
2013-04-12 07:53:00,23.0,13.0,-100.00,North,-999,-999.0,-999.0,67,-99.99,,,-99.99,,2013-04-12 13:53:00,
2013-04-12 08:03:00,23.0,14.0,-100.00,North,-999,-999.0,-999.0,66,-99.99,,,-99.99,,2013-04-12 14:03:00,
2013-04-12 08:12:00,23.0,14.0,-100.00,North,-999,-999.0,-999.0,66,-99.99,,,-99.99,,2013-04-12 14:12:00,
2013-04-12 08:22:00,23.0,14.0,-100.00,North,-999,-999.0,-999.0,66,-99.99,,,-99.99,,2013-04-12 14:22:00,
2013-04-12 08:32:00,23.0,14.0,-100.00,North,-999,-999.0,-999.0,66,-99.99,,,-99.99,,2013-04-12 14:32:00,
2013-04-12 08:42:00,25.0,13.0,-100.00,North,-999,-999.0,-999.0,59,-99.99,,,-99.99,,2013-04-12 14:42:00,
2013-04-12 08:53:00,25.0,13.0,-100.00,North,-999,-999.0,-999.0,59,-99.99,,,-99.99,,2013-04-12 14:53:00,
2013-04-12 09:02:00,25.0,14.0,-100.00,North,-999,-999.0,-999.0,63,-99.99,,,-99.99,,2013-04-12 15:02:00,
2013-04-12 09:12:00,24.0,16.0,-100.00,North,-999,-999.0,-999.0,69,-99.99,,,-99.99,,2013-04-12 15:12:00,
2013-04-12 09:22:00,24.0,16.0,-100.00,North,-999,-999.0,-999.0,69,-99.99,,,-99.99,,2013-04-12 15:22:00,
2013-04-12 09:33:00,24.0,16.0,-100.00,North,-999,-999.0,-999.0,69,-99.99,,,-99.99,,2013-04-12 15:33:00,
2013-04-12 09:43:00,26.0,16.0,-100.00,North,-999,-999.0,-999.0,64,-99.99,,,-99.99,,2013-04-12 15:43:00,
2013-04-12 09:53:00,26.0,16.0,-100.00,North,-999,-999.0,-999.0,64,-99.99,,,-99.99,,2013-04-12 15:53:00,
2013-04-12 10:03:00,27.0,15.0,-100.00,North,-999,-999.0,-999.0,58,-99.99,,,-99.99,,2013-04-12 16:03:00,
2013-04-12 10:13:00,29.0,13.0,-100.00,North,-999,-999.0,-999.0,49,-99.99,,,-99.99,,2013-04-12 16:13:00,
2013-04-12 10:22:00,29.0,13.0,-100.00,North,-999,-999.0,-999.0,49,-99.99,,,-99.99,,2013-04-12 16:22:00,
2013-04-12 10:33:00,29.0,13.0,-100.00,North,-999,-999.0,-999.0,49,-99.99,,,-99.99,,2013-04-12 16:33:00,
2013-04-12 10:42:00,30.0,17.0,-100.00,North,-999,-999.0,-999.0,58,-99.99,,,-99.99,,2013-04-12 16:42:00,
2013-04-12 10:53:00,30.0,17.0,-100.00,North,-999,-999.0,-999.0,58,-99.99,,,-99.99,,2013-04-12 16:53:00,
2013-04-12 11:03:00,29.0,21.0,-100.00,North,-999,-999.0,-999.0,70,-99.99,,,-99.99,,2013-04-12 17:03:00,
2013-04-12 11:12:00,30.0,21.0,-100.00,North,-999,-999.0,-999.0,69,-99.99,,,-99.99,,2013-04-12 17:12:00,
2013-04-12 11:22:00,30.0,21.0,-100.00,North,-999,-999.0,-999.0,69,-99.99,,,-99.99,,2013-04-12 17:22:00,
2013-04-12 11:32:00,30.0,21.0,-100.00,North,-999,-999.0,-999.0,69,-99.99,,,-99.99,,2013-04-12 17:32:00,
2013-04-12 11:44:00,33.0,22.0,-100.00,North,-999,-999.0,-999.0,62,-99.99,,,-99.99,,2013-04-12 17:44:00,
2013-04-12 12:03:00,33.0,22.0,-100.00,North,-999,-999.0,-999.0,62,-99.99,,,-99.99,,2013-04-12 18:03:00,
2013-04-12 12:14:00,34.0,22.0,-100.00,North,-999,-999.0,-999.0,59,-99.99,,,-99.99,,2013-04-12 18:14:00,
2013-04-12 12:29:00,34.0,22.0,-100.00,North,-999,-999.0,-999.0,59,-99.99,,,-99.99,,2013-04-12 18:29:00,
2013-04-12 13:26:00,34.0,22.0,-100.00,North,-999,-999.0,-999.0,59,-99.99,,,-99.99,,2013-04-12 19:26:00,
2013-04-12 13:32:00,34.0,22.0,-100.00,North,-999,-999.0,-999.0,59,-99.99,,,-99.99,,2013-04-12 19:32:00,
2013-04-12 13:42:00,35.0,23.0,-100.00,North,-999,-999.0,-999.0,62,-99.99,,,-99.99,,2013-04-12 19:42:00,
2013-04-12 13:53:00,35.0,23.0,-100.00,North,-999,-999.0,-999.0,62,-99.99,,,-99.99,,2013-04-12 19:53:00,
2013-04-12 14:02:00,36.0,20.0,-100.00,North,-999,-999.0,-999.0,52,-99.99,,,-99.99,,2013-04-12 20:02:00,
2013-04-12 14:12:00,36.0,22.0,-100.00,North,-999,-999.0,-999.0,57,-99.99,,,-99.99,,2013-04-12 20:12:00,
2013-04-12 14:22:00,36.0,22.0,-100.00,North,-999,-999.0,-999.0,57,-99.99,,,-99.99,,2013-04-12 20:22:00,
2013-04-12 14:32:00,36.0,22.0,-100.00,North,-999,-999.0,-999.0,57,-99.99,,,-99.99,,2013-04-12 20:32:00,
2013-04-12 14:42:00,36.0,22.0,-100.00,North,-999,-999.0,-999.0,56,-99.99,,,-99.99,,2013-04-12 20:42:00,
2013-04-12 14:52:00,36.0,22.0,-100.00,North,-999,-999.0,-999.0,56,-99.99,,,-99.99,,2013-04-12 20:52:00,
2013-04-12 15:02:00,36.0,22.0,-100.00,North,-999,-999.0,-999.0,56,-99.99,,,-99.99,,2013-04-12 21:02:00,
2013-04-12 15:11:00,38.0,22.0,-100.00,North,-999,-999.0,-999.0,51,-99.99,,,-99.99,,2013-04-12 21:11:00,
2013-04-12 15:21:00,38.0,22.0,-100.00,North,-999,-999.0,-999.0,51,-99.99,,,-99.99,,2013-04-12 21:21:00,
2013-04-12 15:32:00,38.0,22.0,-100.00,North,-999,-999.0,-999.0,51,-99.99,,,-99.99,,2013-04-12 21:32:00,
2013-04-12 15:42:00,38.0,23.0,-100.00,North,-999,-999.0,-999.0,53,-99.99,,,-99.99,,2013-04-12 21:42:00,
2013-04-12 15:53:00,38.0,23.0,-100.00,North,-999,-999.0,-999.0,53,-99.99,,,-99.99,,2013-04-12 21:53:00,
2013-04-12 16:02:00,40.0,23.0,-100.00,North,-999,-999.0,-999.0,50,-99.99,,,-99.99,,2013-04-12 22:02:00,
2013-04-12 16:12:00,42.0,23.0,-100.00,North,-999,-999.0,-999.0,46,-99.99,,,-99.99,,2013-04-12 22:12:00,
2013-04-12 16:22:00,42.0,23.0,-100.00,North,-999,-999.0,-999.0,46,-99.99,,,-99.99,,2013-04-12 22:22:00,
2013-04-12 16:32:00,42.0,23.0,-100.00,North,-999,-999.0,-999.0,46,-99.99,,,-99.99,,2013-04-12 22:32:00,
2013-04-12 16:42:00,40.0,21.0,-100.00,North,-999,-999.0,-999.0,44,-99.99,,,-99.99,,2013-04-12 22:42:00,
2013-04-12 16:52:00,40.0,21.0,-100.00,North,-999,-999.0,-999.0,44,-99.99,,,-99.99,,2013-04-12 22:52:00,
2013-04-12 17:03:00,40.0,22.0,-100.00,North,-999,-999.0,-999.0,48,-99.99,,,-99.99,,2013-04-12 23:03:00,
2013-04-12 17:12:00,42.0,21.0,-100.00,North,-999,-999.0,-999.0,43,-99.99,,,-99.99,,2013-04-12 23:12:00,
2013-04-12 17:22:00,42.0,21.0,-100.00,North,-999,-999.0,-999.0,43,-99.99,,,-99.99,,2013-04-12 23:22:00,
2013-04-12 17:32:00,42.0,21.0,-100.00,North,-999,-999.0,-999.0,43,-99.99,,,-99.99,,2013-04-12 23:32:00,
2013-04-12 17:42:00,41.0,20.0,-100.00,North,-999,-999.0,-999.0,43,-99.99,,,-99.99,,2013-04-12 23:42:00,
2013-04-12 17:52:00,41.0,20.0,-100.00,North,-999,-999.0,-999.0,43,-99.99,,,-99.99,,2013-04-12 23:52:00,
2013-04-12 18:02:00,42.0,19.0,-100.00,North,-999,-999.0,-999.0,40,-99.99,,,-99.99,,2013-04-13 00:02:00,
2013-04-12 18:22:00,41.0,18.0,-100.00,North,-999,-999.0,-999.0,39,-99.99,,,-99.99,,2013-04-13 00:22:00,
2013-04-12 18:32:00,41.0,18.0,-100.00,North,-999,-999.0,-999.0,39,-99.99,,,-99.99,,2013-04-13 00:32:00,
2013-04-12 18:42:00,38.0,18.0,-100.00,North,-999,-999.0,-999.0,43,-99.99,,,-99.99,,2013-04-13 00:42:00,
2013-04-12 18:52:00,38.0,18.0,-100.00,North,-999,-999.0,-999.0,43,-99.99,,,-99.99,,2013-04-13 00:52:00,
2013-04-12 19:02:00,38.0,16.0,-100.00,North,-999,-999.0,-999.0,39,-99.99,,,-99.99,,2013-04-13 01:02:00,
2013-04-12 19:12:00,37.0,15.0,-100.00,North,-999,-999.0,-999.0,39,-99.99,,,-99.99,,2013-04-13 01:12:00,
2013-04-12 19:22:00,37.0,15.0,-100.00,North,-999,-999.0,-999.0,39,-99.99,,,-99.99,,2013-04-13 01:22:00,
2013-04-12 19:32:00,37.0,15.0,-100.00,North,-999,-999.0,-999.0,39,-99.99,,,-99.99,,2013-04-13 01:32:00,
2013-04-12 19:42:00,38.0,16.0,-100.00,North,-999,-999.0,-999.0,40,-99.99,,,-99.99,,2013-04-13 01:42:00,
2013-04-12 19:52:00,38.0,16.0,-100.00,North,-999,-999.0,-999.0,40,-99.99,,,-99.99,,2013-04-13 01:52:00,
2013-04-12 20:02:00,37.0,16.0,-100.00,North,-999,-999.0,-999.0,42,-99.99,,,-99.99,,2013-04-13 02:02:00,
2013-04-12 20:12:00,35.0,16.0,-100.00,North,-999,-999.0,-999.0,43,-99.99,,,-99.99,,2013-04-13 02:12:00,
2013-04-12 20:22:00,35.0,16.0,-100.00,North,-999,-999.0,-999.0,43,-99.99,,,-99.99,,2013-04-13 02:22:00,
2013-04-12 20:32:00,35.0,16.0,-100.00,North,-999,-999.0,-999.0,43,-99.99,,,-99.99,,2013-04-13 02:32:00,
2013-04-12 20:42:00,32.0,14.0,-100.00,North,-999,-999.0,-999.0,46,-99.99,,,-99.99,,2013-04-13 02:42:00,
2013-04-12 20:53:00,32.0,14.0,-100.00,North,-999,-999.0,-999.0,46,-99.99,,,-99.99,,2013-04-13 02:53:00,
2013-04-12 21:02:00,31.0,14.0,-100.00,North,-999,-999.0,-999.0,48,-99.99,,,-99.99,,2013-04-13 03:02:00,
2013-04-12 21:12:00,31.0,15.0,-100.00,North,-999,-999.0,-999.0,50,-99.99,,,-99.99,,2013-04-13 03:12:00,
2013-04-12 21:22:00,31.0,15.0,-100.00,North,-999,-999.0,-999.0,50,-99.99,,,-99.99,,2013-04-13 03:22:00,
2013-04-12 21:33:00,31.0,15.0,-100.00,North,-999,-999.0,-999.0,50,-99.99,,,-99.99,,2013-04-13 03:33:00,
2013-04-12 21:42:00,30.0,15.0,-100.00,North,-999,-999.0,-999.0,53,-99.99,,,-99.99,,2013-04-13 03:42:00,
2013-04-12 21:53:00,30.0,15.0,-100.00,North,-999,-999.0,-999.0,53,-99.99,,,-99.99,,2013-04-13 03:53:00,
2013-04-12 22:02:00,30.0,14.0,-100.00,North,-999,-999.0,-999.0,51,-99.99,,,-99.99,,2013-04-13 04:02:00,
2013-04-12 22:12:00,29.0,13.0,-100.00,North,-999,-999.0,-999.0,50,-99.99,,,-99.99,,2013-04-13 04:12:00,
2013-04-12 22:22:00,29.0,13.0,-100.00,North,-999,-999.0,-999.0,50,-99.99,,,-99.99,,2013-04-13 04:22:00,
2013-04-12 22:32:00,29.0,13.0,-100.00,North,-999,-999.0,-999.0,50,-99.99,,,-99.99,,2013-04-13 04:32:00,
2013-04-12 22:42:00,30.0,11.0,-100.00,North,-999,-999.0,-999.0,44,-99.99,,,-99.99,,2013-04-13 04:42:00,
2013-04-12 22:53:00,30.0,11.0,-100.00,North,-999,-999.0,-999.0,44,-99.99,,,-99.99,,2013-04-13 04:53:00,
2013-04-12 23:02:00,31.0,10.0,-100.00,North,-999,-999.0,-999.0,40,-99.99,,,-99.99,,2013-04-13 05:02:00,
2013-04-12 23:12:00,31.0,9.0,-100.00,North,-999,-999.0,-999.0,39,-99.99,,,-99.99,,2013-04-13 05:12:00,
2013-04-12 23:22:00,31.0,9.0,-100.00,North,-999,-999.0,-999.0,39,-99.99,,,-99.99,,2013-04-13 05:22:00,
2013-04-12 23:31:00,31.0,9.0,-100.00,North,-999,-999.0,-999.0,39,-99.99,,,-99.99,,2013-04-13 05:31:00,
2013-04-12 23:42:00,31.0,8.0,-100.00,North,-999,-999.0,-999.0,36,-99.99,,,-99.99,,2013-04-13 05:42:00,
2013-04-12 23:52:00,31.0,8.0,-100.00,North,-999,-999.0,-999.0,36,-99.99,,,-99.99,,2013-04-13 05:52:00,